20040106,000015,17837,32.955000,-117.303000,14.307,33.213,NaN,NaN
20040106,000045,17867,32.955000,-117.303000,14.309,33.212,NaN,NaN
20040106,000115,17897,32.955167,-117.302833,14.307,33.212,NaN,NaN
20040106,000145,17927,32.955167,-117.302833,14.307,33.212,NaN,NaN
20040106,000215,17957,32.955167,-117.302833,14.306,33.211,NaN,NaN
20040106,000245,17987,32.955167,-117.302833,14.306,33.211,NaN,NaN
20040106,000315,18017,32.955167,-117.302833,14.307,33.212,NaN,NaN
20040106,000345,18047,32.955167,-117.302833,14.308,33.212,NaN,NaN
20040106,000415,18077,32.955167,-117.302833,14.299,33.214,NaN,NaN
20040106,000445,18107,32.955000,-117.302833,14.286,33.214,NaN,NaN
20040106,000515,18137,32.955000,-117.302833,14.264,33.215,NaN,NaN
20040106,000545,18167,32.955000,-117.302833,14.249,33.211,NaN,NaN
20040106,000615,18197,32.955000,-117.302833,14.237,33.212,NaN,NaN
20040106,000645,18227,32.955000,-117.302833,14.232,33.212,NaN,NaN
20040106,000715,18257,32.955000,-117.302833,14.223,33.211,NaN,NaN
20040106,000745,18287,32.954833,-117.302833,14.217,33.210,NaN,NaN
20040106,000815,18317,32.954833,-117.302833,14.223,33.209,NaN,NaN
20040106,000845,18347,32.954833,-117.302833,14.228,33.210,NaN,NaN
20040106,000915,18377,32.954833,-117.302833,14.240,33.209,NaN,NaN
20040106,000945,18407,32.954667,-117.302833,14.250,33.209,NaN,NaN
20040106,001015,18437,32.954667,-117.302833,14.249,33.211,NaN,NaN
20040106,001045,18467,32.954667,-117.302833,14.248,33.209,NaN,NaN
20040106,001115,18497,32.954667,-117.302833,14.250,33.210,NaN,NaN
20040106,001145,18527,32.954500,-117.302833,14.254,33.211,NaN,NaN
20040106,001215,18557,32.954500,-117.302833,14.251,33.211,NaN,NaN
20040106,001245,18587,32.954500,-117.302833,14.253,33.212,NaN,NaN
20040106,001315,18617,32.954333,-117.302833,14.246,33.212,NaN,NaN
20040106,001345,18647,32.954333,-117.302833,14.243,33.212,NaN,NaN
20040106,001415,18677,32.954167,-117.303000,14.240,33.212,NaN,NaN
20040106,001445,18707,32.953833,-117.303000,14.240,33.210,NaN,NaN
20040106,001515,18737,32.953667,-117.302833,14.240,33.212,NaN,NaN
20040106,001545,18767,32.953500,-117.303000,14.246,33.214,NaN,NaN
20040106,001615,18797,32.953333,-117.303167,14.236,33.213,NaN,NaN
20040106,001645,18827,32.953167,-117.303333,14.236,33.213,NaN,NaN
20040106,001715,18857,32.953167,-117.303500,14.233,33.213,NaN,NaN
20040106,001745,18887,32.953167,-117.303500,14.232,33.213,NaN,NaN
20040106,001815,18917,32.953167,-117.303500,14.235,33.212,NaN,NaN
20040106,001845,18947,32.953167,-117.303500,14.238,33.213,NaN,NaN
20040106,001915,18977,32.953167,-117.303667,14.238,33.213,NaN,NaN
20040106,001945,19007,32.953167,-117.303667,14.237,33.213,NaN,NaN
20040106,002015,19037,32.953167,-117.303667,14.240,33.211,NaN,NaN
20040106,002045,19067,32.953000,-117.303667,14.241,33.212,NaN,NaN
20040106,002115,19097,32.953000,-117.303667,14.242,33.212,NaN,NaN
20040106,002145,19127,32.953000,-117.303667,14.242,33.212,NaN,NaN
20040106,002215,19157,32.952833,-117.303667,14.245,33.211,NaN,NaN
20040106,002245,19187,32.952833,-117.303667,14.251,33.213,NaN,NaN
20040106,002315,19217,32.952833,-117.303667,14.253,33.212,NaN,NaN
20040106,002345,19247,32.952667,-117.303667,14.254,33.212,NaN,NaN
20040106,002415,19277,32.952667,-117.303667,14.263,33.211,NaN,NaN
20040106,002445,19307,32.952667,-117.303667,14.275,33.212,NaN,NaN
20040106,002515,19337,32.952500,-117.303500,14.278,33.213,NaN,NaN
20040106,002545,19367,32.952500,-117.303500,14.274,33.215,NaN,NaN
20040106,002615,19397,32.952500,-117.303500,14.263,33.214,NaN,NaN
20040106,002645,19427,32.952333,-117.303500,14.265,33.212,NaN,NaN
20040106,002715,19457,32.952333,-117.303500,14.270,33.212,NaN,NaN
20040106,002745,19487,32.952333,-117.303333,14.273,33.214,NaN,NaN
20040106,002815,19517,32.952333,-117.303333,14.258,33.215,NaN,NaN
20040106,002845,19547,32.952167,-117.303333,14.238,33.214,NaN,NaN
20040106,002915,19577,32.952167,-117.303333,14.221,33.214,NaN,NaN
20040106,002945,19607,32.952167,-117.303333,14.208,33.213,NaN,NaN
20040106,003015,19637,32.952000,-117.303333,14.202,33.212,NaN,NaN
20040106,003045,19667,32.952000,-117.303333,14.195,33.212,NaN,NaN
20040106,003115,19697,32.952000,-117.303333,14.200,33.209,NaN,NaN
20040106,003145,19727,32.951833,-117.303333,14.210,33.210,NaN,NaN
20040106,003215,19757,32.951833,-117.303333,14.208,33.211,NaN,NaN
20040106,003245,19787,32.951833,-117.303333,14.204,33.212,NaN,NaN
20040106,003315,19817,32.951833,-117.303333,14.203,33.212,NaN,NaN
20040106,003345,19847,32.951667,-117.303333,14.208,33.211,NaN,NaN
20040106,003415,19877,32.951667,-117.303500,14.216,33.211,NaN,NaN
20040106,003445,19907,32.951667,-117.303500,14.222,33.211,NaN,NaN
20040106,003515,19937,32.951500,-117.303500,14.223,33.212,NaN,NaN
20040106,003545,19967,32.951500,-117.303500,14.226,33.212,NaN,NaN
20040106,003615,19997,32.951500,-117.303500,14.240,33.210,NaN,NaN
20040106,003645,20027,32.951500,-117.303500,14.258,33.211,NaN,NaN
20040106,003715,20057,32.951333,-117.303500,14.266,33.212,NaN,NaN
20040106,003745,20087,32.951333,-117.303500,14.267,33.213,NaN,NaN
20040106,003815,20117,32.951333,-117.303500,14.265,33.213,NaN,NaN
20040106,003845,20147,32.951167,-117.303500,14.265,33.212,NaN,NaN
20040106,003915,20177,32.951167,-117.303500,14.266,33.212,NaN,NaN
20040106,003945,20207,32.951167,-117.303500,14.270,33.212,NaN,NaN
20040106,004015,20237,32.951000,-117.303667,14.275,33.213,NaN,NaN
20040106,004045,20267,32.951000,-117.303667,14.277,33.213,NaN,NaN
20040106,004115,20297,32.950833,-117.303667,14.280,33.213,NaN,NaN
20040106,004145,20327,32.950833,-117.303667,14.282,33.213,NaN,NaN
20040106,004215,20357,32.950833,-117.303833,14.285,33.213,NaN,NaN
20040106,004245,20387,32.950833,-117.303833,14.288,33.214,NaN,NaN
20040106,004315,20417,32.950667,-117.303833,14.290,33.213,NaN,NaN
20040106,004345,20447,32.950667,-117.303833,14.290,33.213,NaN,NaN
20040106,004415,20477,32.950667,-117.304000,14.292,33.213,NaN,NaN
20040106,004445,20507,32.950500,-117.304000,14.291,33.213,NaN,NaN
20040106,004515,20537,32.950500,-117.304000,14.285,33.214,NaN,NaN
20040106,004545,20567,32.950500,-117.304000,14.276,33.214,NaN,NaN
20040106,004615,20597,32.950333,-117.304000,14.284,33.213,NaN,NaN
20040106,004645,20627,32.950333,-117.303833,14.287,33.213,NaN,NaN
20040106,004715,20657,32.950167,-117.303833,14.282,33.214,NaN,NaN
20040106,004745,20687,32.950000,-117.303833,14.281,33.215,NaN,NaN
20040106,004815,20717,32.949833,-117.303667,14.280,33.213,NaN,NaN
20040106,004845,20747,32.949667,-117.303667,14.286,33.213,NaN,NaN
20040106,004915,20777,32.949667,-117.303500,14.290,33.213,NaN,NaN
20040106,004945,20807,32.949500,-117.303500,14.297,33.213,NaN,NaN
20040106,005015,20837,32.949333,-117.303333,14.306,33.213,NaN,NaN
20040106,005045,20867,32.949167,-117.303333,14.309,33.214,NaN,NaN
20040106,005115,20897,32.949167,-117.303333,14.314,33.213,NaN,NaN
20040106,005145,20927,32.949167,-117.303333,14.312,33.215,NaN,NaN
20040106,005215,20957,32.949000,-117.303167,14.308,33.216,NaN,NaN
20040106,005245,20987,32.949000,-117.303167,14.306,33.214,NaN,NaN
20040106,005315,21017,32.949000,-117.303167,14.305,33.215,NaN,NaN
20040106,005345,21047,32.948833,-117.303000,14.306,33.215,NaN,NaN
20040106,005415,21077,32.948833,-117.303000,14.309,33.215,NaN,NaN
20040106,005445,21107,32.948667,-117.303000,14.311,33.214,NaN,NaN
20040106,005515,21137,32.948667,-117.302833,14.312,33.215,NaN,NaN
20040106,005545,21167,32.948667,-117.302833,14.312,33.214,NaN,NaN
20040106,005615,21197,32.948500,-117.302833,14.314,33.214,NaN,NaN
20040106,005645,21227,32.948500,-117.302833,14.313,33.215,NaN,NaN
20040106,005715,21257,32.948500,-117.302667,14.311,33.215,NaN,NaN
20040106,005745,21287,32.948333,-117.302667,14.309,33.215,NaN,NaN
20040106,005815,21317,32.948333,-117.302667,14.307,33.214,NaN,NaN
20040106,005845,21347,32.948167,-117.302667,14.306,33.215,NaN,NaN
20040106,005915,21377,32.948167,-117.302667,14.305,33.214,NaN,NaN
20040106,005945,21407,32.948167,-117.302667,14.304,33.215,NaN,NaN
20040106,010015,21437,32.948000,-117.302667,14.304,33.215,NaN,NaN
20040106,010045,21467,32.948000,-117.302667,14.305,33.214,NaN,NaN
20040106,010115,21497,32.947833,-117.302833,14.303,33.215,NaN,NaN
20040106,010145,21527,32.947833,-117.302833,14.299,33.214,NaN,NaN
20040106,010215,21557,32.947833,-117.302833,14.296,33.215,NaN,NaN
20040106,010245,21587,32.947667,-117.302833,14.292,33.214,NaN,NaN
20040106,010315,21617,32.947667,-117.303000,14.286,33.214,NaN,NaN
20040106,010345,21647,32.947667,-117.303000,14.280,33.215,NaN,NaN
20040106,010415,21677,32.947500,-117.303000,14.277,33.214,NaN,NaN
20040106,010445,21707,32.947500,-117.303167,14.274,33.214,NaN,NaN
20040106,010515,21737,32.947500,-117.303167,14.267,33.214,NaN,NaN
20040106,010545,21767,32.947500,-117.303167,14.261,33.215,NaN,NaN
20040106,010615,21797,32.947333,-117.303333,14.260,33.214,NaN,NaN
20040106,010645,21827,32.947333,-117.303333,14.257,33.214,NaN,NaN
20040106,010715,21857,32.947333,-117.303333,14.257,33.214,NaN,NaN
20040106,010745,21887,32.947333,-117.303333,14.262,33.213,NaN,NaN
20040106,010815,21917,32.947167,-117.303333,14.262,33.213,NaN,NaN
20040106,010845,21947,32.947167,-117.303333,14.250,33.214,NaN,NaN
20040106,010915,21977,32.947167,-117.303333,14.241,33.214,NaN,NaN
20040106,010945,22007,32.947167,-117.303167,14.240,33.213,NaN,NaN
20040106,011015,22037,32.947167,-117.303167,14.220,33.215,NaN,NaN
20040106,011045,22067,32.947167,-117.303000,14.201,33.212,NaN,NaN
20040106,011115,22097,32.947167,-117.303000,14.193,33.212,NaN,NaN
20040106,011145,22127,32.947333,-117.303000,14.190,33.213,NaN,NaN
20040106,011215,22157,32.947333,-117.303000,14.190,33.212,NaN,NaN
20040106,011245,22187,32.947333,-117.303000,14.188,33.212,NaN,NaN
20040106,011315,22217,32.947333,-117.303000,14.191,33.212,NaN,NaN
20040106,011345,22247,32.947333,-117.303000,14.189,33.213,NaN,NaN
20040106,011415,22277,32.947333,-117.303000,14.210,33.209,NaN,NaN
20040106,011445,22307,32.947333,-117.303167,14.232,33.211,NaN,NaN
20040106,011515,22337,32.947333,-117.303167,14.241,33.213,NaN,NaN
20040106,011545,22367,32.947333,-117.303333,14.241,33.214,NaN,NaN
20040106,011615,22397,32.947333,-117.303500,14.242,33.214,NaN,NaN
20040106,011645,22427,32.947333,-117.303500,14.243,33.213,NaN,NaN
20040106,011715,22457,32.947333,-117.303667,14.243,33.213,NaN,NaN
20040106,011745,22487,32.947333,-117.303667,14.245,33.213,NaN,NaN
20040106,011815,22517,32.947333,-117.303833,14.246,33.214,NaN,NaN
20040106,011845,22547,32.947333,-117.303833,14.247,33.214,NaN,NaN
20040106,011915,22577,32.947333,-117.304000,14.248,33.213,NaN,NaN
20040106,011945,22607,32.947333,-117.304000,14.250,33.213,NaN,NaN
20040106,012015,22637,32.947333,-117.304000,14.252,33.213,NaN,NaN
20040106,012045,22667,32.947333,-117.304000,14.251,33.214,NaN,NaN
20040106,012115,22697,32.947333,-117.304000,14.253,33.213,NaN,NaN
20040106,012145,22727,32.947333,-117.304000,14.258,33.213,NaN,NaN
20040106,012215,22757,32.947167,-117.304000,14.258,33.213,NaN,NaN
20040106,012245,22787,32.947167,-117.304167,14.257,33.214,NaN,NaN
20040106,012315,22817,32.947167,-117.304167,14.256,33.214,NaN,NaN
20040106,012345,22847,32.947167,-117.304167,14.258,33.213,NaN,NaN
20040106,012415,22877,32.947167,-117.304333,14.261,33.213,NaN,NaN
20040106,012445,22907,32.947167,-117.304667,14.262,33.214,NaN,NaN
20040106,012515,22937,32.947167,-117.305000,14.261,33.214,NaN,NaN
20040106,012545,22967,32.947333,-117.305167,14.260,33.214,NaN,NaN
20040106,012615,22997,32.947333,-117.305333,14.261,33.214,NaN,NaN
20040106,012645,23027,32.947500,-117.305500,14.259,33.214,NaN,NaN
20040106,012715,23057,32.947667,-117.305667,14.260,33.214,NaN,NaN
20040106,012745,23087,32.947667,-117.305833,14.257,33.214,NaN,NaN
20040106,012815,23117,32.947833,-117.306000,14.251,33.215,NaN,NaN
20040106,012845,23147,32.947833,-117.306333,14.249,33.214,NaN,NaN
20040106,012915,23177,32.948000,-117.306500,14.247,33.213,NaN,NaN
20040106,012945,23207,32.948167,-117.306500,14.244,33.213,NaN,NaN
20040106,013015,23237,32.948167,-117.306667,14.242,33.214,NaN,NaN
20040106,013045,23267,32.948167,-117.306833,14.239,33.214,NaN,NaN
20040106,013115,23297,32.948333,-117.307000,14.235,33.214,NaN,NaN
20040106,013145,23327,32.948333,-117.307167,14.230,33.213,NaN,NaN
20040106,013215,23357,32.948500,-117.307500,14.228,33.213,NaN,NaN
20040106,013245,23387,32.948500,-117.307667,14.224,33.214,NaN,NaN
20040106,013315,23417,32.948667,-117.307667,14.223,33.213,NaN,NaN
20040106,013345,23447,32.948667,-117.308000,14.220,33.213,NaN,NaN
20040106,013415,23477,32.948667,-117.308167,14.217,33.212,NaN,NaN
20040106,013445,23507,32.948833,-117.308333,14.217,33.213,NaN,NaN
20040106,013515,23537,32.948833,-117.308500,14.214,33.212,NaN,NaN
20040106,013545,23567,32.949000,-117.308667,14.211,33.212,NaN,NaN
20040106,013615,23597,32.949000,-117.309000,14.210,33.213,NaN,NaN
20040106,013645,23627,32.949000,-117.309167,14.209,33.213,NaN,NaN
20040106,013715,23657,32.949167,-117.309333,14.211,33.213,NaN,NaN
20040106,013745,23687,32.949167,-117.309500,14.210,33.213,NaN,NaN
20040106,013815,23717,32.949333,-117.309667,14.215,33.212,NaN,NaN
20040106,013845,23747,32.949333,-117.309833,14.219,33.212,NaN,NaN
20040106,013915,23777,32.949500,-117.310000,14.220,33.212,NaN,NaN
20040106,013945,23807,32.949500,-117.310167,14.221,33.213,NaN,NaN
20040106,014015,23837,32.949500,-117.310333,14.225,33.211,NaN,NaN
20040106,014045,23867,32.949500,-117.310667,14.226,33.212,NaN,NaN
20040106,014115,23897,32.949667,-117.310833,14.228,33.211,NaN,NaN
20040106,014145,23927,32.949667,-117.311167,14.227,33.212,NaN,NaN
20040106,014215,23957,32.949833,-117.311333,14.226,33.211,NaN,NaN
20040106,014245,23987,32.949833,-117.311500,14.228,33.211,NaN,NaN
20040106,014315,24017,32.949833,-117.311667,14.227,33.212,NaN,NaN
20040106,014345,24047,32.950000,-117.312000,14.223,33.212,NaN,NaN
20040106,014415,24077,32.950167,-117.312167,14.223,33.211,NaN,NaN
20040106,014445,24107,32.950167,-117.312500,14.222,33.211,NaN,NaN
20040106,014515,24137,32.950333,-117.312667,14.218,33.210,NaN,NaN
20040106,014545,24167,32.950500,-117.312833,14.215,33.211,NaN,NaN
20040106,014615,24197,32.950500,-117.313167,14.213,33.210,NaN,NaN
20040106,014645,24227,32.950667,-117.313500,14.212,33.208,NaN,NaN
20040106,014715,24257,32.950833,-117.313667,14.208,33.210,NaN,NaN
20040106,014745,24287,32.950833,-117.314000,14.206,33.210,NaN,NaN
20040106,014815,24317,32.951000,-117.314333,14.205,33.210,NaN,NaN
20040106,014845,24347,32.951167,-117.314667,14.205,33.208,NaN,NaN
20040106,014915,24377,32.951167,-117.314833,14.203,33.209,NaN,NaN
20040106,014945,24407,32.951167,-117.315000,14.202,33.208,NaN,NaN
20040106,015015,24437,32.951333,-117.315333,14.200,33.209,NaN,NaN
20040106,015045,24467,32.951333,-117.315333,14.200,33.208,NaN,NaN
20040106,015115,24497,32.951333,-117.315500,14.197,33.209,NaN,NaN
20040106,015145,24527,32.951333,-117.315667,14.196,33.208,NaN,NaN
20040106,015215,24557,32.951500,-117.315667,14.197,33.208,NaN,NaN
20040106,015245,24587,32.951500,-117.315833,14.197,33.207,NaN,NaN
20040106,015315,24617,32.951667,-117.316167,14.197,33.208,NaN,NaN
20040106,015345,24647,32.951667,-117.316333,14.199,33.208,NaN,NaN
20040106,015415,24677,32.951667,-117.316500,14.200,33.208,NaN,NaN
20040106,015445,24707,32.951833,-117.316667,14.199,33.208,NaN,NaN
20040106,015515,24737,32.952000,-117.316833,14.199,33.207,NaN,NaN
20040106,015545,24767,32.952167,-117.317167,14.199,33.207,NaN,NaN
20040106,015615,24797,32.952167,-117.317333,14.201,33.208,NaN,NaN
20040106,015645,24827,32.952167,-117.317333,14.203,33.207,NaN,NaN
20040106,015715,24857,32.952333,-117.317500,14.204,33.208,NaN,NaN
20040106,015745,24887,32.952500,-117.317833,14.200,33.209,NaN,NaN
20040106,015815,24917,32.952500,-117.318000,14.200,33.209,NaN,NaN
20040106,015845,24947,32.952500,-117.318167,14.202,33.208,NaN,NaN
20040106,015915,24977,32.952667,-117.318333,14.202,33.208,NaN,NaN
20040106,015945,25007,32.952833,-117.318667,14.203,33.210,NaN,NaN
20040106,020015,25037,32.952833,-117.318667,14.204,33.210,NaN,NaN
20040106,020045,25067,32.952833,-117.318833,14.204,33.209,NaN,NaN
20040106,020115,25097,32.953000,-117.319000,14.200,33.209,NaN,NaN
20040106,020145,25127,32.953000,-117.319000,14.199,33.208,NaN,NaN
20040106,020215,25157,32.953000,-117.319167,14.198,33.209,NaN,NaN
20040106,020245,25187,32.953000,-117.319333,14.200,33.208,NaN,NaN
20040106,020315,25217,32.953000,-117.319333,14.200,33.209,NaN,NaN
20040106,020345,25247,32.953000,-117.319500,14.199,33.210,NaN,NaN
20040106,020415,25277,32.953000,-117.319667,14.200,33.209,NaN,NaN
20040106,020445,25307,32.953000,-117.319667,14.203,33.209,NaN,NaN
20040106,020515,25337,32.953000,-117.319833,14.204,33.209,NaN,NaN
20040106,020545,25367,32.952833,-117.320500,14.204,33.210,NaN,NaN
20040106,020615,25397,32.952667,-117.320833,14.205,33.209,NaN,NaN
20040106,020645,25427,32.952333,-117.321167,14.205,33.209,NaN,NaN
20040106,020715,25457,32.952167,-117.321833,14.205,33.209,NaN,NaN
20040106,020745,25487,32.951833,-117.322333,14.203,33.208,NaN,NaN
20040106,020815,25517,32.951500,-117.323167,14.200,33.209,NaN,NaN
20040106,020845,25547,32.951000,-117.324000,14.204,33.207,NaN,NaN
20040106,020915,25577,32.950500,-117.325000,14.205,33.208,NaN,NaN
20040106,020945,25607,32.950167,-117.325833,14.208,33.207,NaN,NaN
20040106,021015,25637,32.949667,-117.327000,14.209,33.208,NaN,NaN
20040106,021045,25667,32.949167,-117.328000,14.206,33.208,NaN,NaN
20040106,021115,25697,32.948667,-117.329000,14.203,33.207,NaN,NaN
20040106,021145,25727,32.948167,-117.330000,14.198,33.208,NaN,NaN
20040106,021215,25757,32.947667,-117.331000,14.203,33.207,NaN,NaN
20040106,021245,25787,32.947167,-117.332167,14.208,33.208,NaN,NaN
20040106,021315,25817,32.946667,-117.333167,14.210,33.208,NaN,NaN
20040106,021345,25847,32.946167,-117.334333,14.212,33.208,NaN,NaN
20040106,021415,25877,32.945500,-117.335500,14.212,33.208,NaN,NaN
20040106,021445,25907,32.945000,-117.336833,14.223,33.208,NaN,NaN
20040106,021515,25937,32.944333,-117.338000,14.218,33.210,NaN,NaN
20040106,021545,25967,32.943667,-117.339333,14.205,33.210,NaN,NaN
20040106,021615,25997,32.943000,-117.340667,14.192,33.210,NaN,NaN
20040106,021645,26027,32.942500,-117.342000,14.182,33.208,NaN,NaN
20040106,021715,26057,32.941833,-117.343333,14.185,33.208,NaN,NaN
20040106,021745,26087,32.941167,-117.344833,14.200,33.207,NaN,NaN
20040106,021815,26117,32.940500,-117.346167,14.227,33.205,NaN,NaN
20040106,021845,26147,32.939667,-117.347667,14.256,33.208,NaN,NaN
20040106,021915,26177,32.939000,-117.349000,14.279,33.208,NaN,NaN
20040106,021945,26207,32.938333,-117.350500,14.302,33.209,NaN,NaN
20040106,022015,26237,32.937667,-117.351833,14.316,33.211,NaN,NaN
20040106,022045,26267,32.937000,-117.353167,14.324,33.211,NaN,NaN
20040106,022115,26297,32.936333,-117.354667,14.345,33.210,NaN,NaN
20040106,022145,26327,32.935667,-117.356000,14.367,33.210,NaN,NaN
20040106,022215,26357,32.934833,-117.357333,14.392,33.211,NaN,NaN
20040106,022245,26387,32.934167,-117.358833,14.402,33.212,NaN,NaN
20040106,022315,26417,32.933500,-117.360167,14.404,33.213,NaN,NaN
20040106,022345,26447,32.932833,-117.361500,14.413,33.213,NaN,NaN
20040106,022415,26477,32.932167,-117.362833,14.422,33.213,NaN,NaN
20040106,022445,26507,32.931500,-117.364333,14.436,33.212,NaN,NaN
20040106,022515,26537,32.930833,-117.365667,14.443,33.213,NaN,NaN
20040106,022545,26567,32.930000,-117.367000,14.441,33.214,NaN,NaN
20040106,022615,26597,32.929333,-117.368500,14.442,33.214,NaN,NaN
20040106,022645,26627,32.928667,-117.369833,14.448,33.214,NaN,NaN
20040106,022715,26657,32.928000,-117.371167,14.461,33.213,NaN,NaN
20040106,022745,26687,32.927333,-117.372667,14.473,33.213,NaN,NaN
20040106,022815,26717,32.926667,-117.374000,14.483,33.214,NaN,NaN
20040106,022845,26747,32.926000,-117.375333,14.488,33.215,NaN,NaN
20040106,022915,26777,32.925333,-117.376833,14.497,33.215,NaN,NaN
20040106,022945,26807,32.924667,-117.378167,14.501,33.215,NaN,NaN
20040106,023015,26837,32.924000,-117.379500,14.505,33.214,NaN,NaN
20040106,023045,26867,32.923333,-117.381000,14.513,33.215,NaN,NaN
20040106,023115,26897,32.922667,-117.382333,14.524,33.216,NaN,NaN
20040106,023145,26927,32.922000,-117.383667,14.535,33.217,NaN,NaN
20040106,023215,26957,32.921167,-117.385000,14.544,33.216,NaN,NaN
20040106,023245,26987,32.920500,-117.386500,14.552,33.216,NaN,NaN
20040106,023315,27017,32.919833,-117.387833,14.557,33.215,NaN,NaN
20040106,023345,27047,32.919167,-117.389167,14.564,33.215,NaN,NaN
20040106,023415,27077,32.918500,-117.390500,14.566,33.215,NaN,NaN
20040106,023445,27107,32.917833,-117.392000,14.569,33.214,NaN,NaN
20040106,023515,27137,32.917167,-117.393333,14.575,33.214,NaN,NaN
20040106,023545,27167,32.916667,-117.394500,14.578,33.213,NaN,NaN
20040106,023615,27197,32.916167,-117.395333,14.583,33.213,NaN,NaN
20040106,023645,27227,32.916000,-117.396000,14.586,33.213,NaN,NaN
20040106,023715,27257,32.916167,-117.396500,14.588,33.213,NaN,NaN
20040106,023745,27287,32.916167,-117.396833,14.590,33.214,NaN,NaN
20040106,023815,27317,32.916167,-117.396833,14.589,33.214,NaN,NaN
20040106,023845,27347,32.916167,-117.396833,14.587,33.214,NaN,NaN
20040106,023915,27377,32.916333,-117.396833,14.582,33.214,NaN,NaN
20040106,023945,27407,32.916333,-117.397000,14.584,33.213,NaN,NaN
20040106,024015,27437,32.916333,-117.397000,14.582,33.213,NaN,NaN
20040106,024045,27467,32.916500,-117.397000,14.581,33.213,NaN,NaN
20040106,024115,27497,32.916500,-117.397000,14.580,33.213,NaN,NaN
20040106,024145,27527,32.916667,-117.397000,14.577,33.213,NaN,NaN
20040106,024215,27557,32.916667,-117.397000,14.579,33.213,NaN,NaN
20040106,024245,27587,32.916667,-117.397167,14.579,33.214,NaN,NaN
20040106,024315,27617,32.916833,-117.397167,14.580,33.213,NaN,NaN
20040106,024345,27647,32.916833,-117.397167,14.582,33.213,NaN,NaN
20040106,024415,27677,32.916833,-117.397167,14.585,33.213,NaN,NaN
20040106,024445,27707,32.916833,-117.397167,14.587,33.212,NaN,NaN
20040106,024515,27737,32.916833,-117.397167,14.586,33.213,NaN,NaN
20040106,024545,27767,32.917000,-117.397167,14.587,33.213,NaN,NaN
20040106,024615,27797,32.917000,-117.397333,14.589,33.213,NaN,NaN
20040106,024645,27827,32.917000,-117.397333,14.590,33.213,NaN,NaN
20040106,024715,27857,32.917000,-117.397333,14.585,33.214,NaN,NaN
20040106,024745,27887,32.917000,-117.397333,14.584,33.213,NaN,NaN
20040106,024815,27917,32.917000,-117.397333,14.584,33.214,NaN,NaN
20040106,024845,27947,32.917000,-117.397333,14.585,33.213,NaN,NaN
20040106,024915,27977,32.917000,-117.397333,14.588,33.213,NaN,NaN
20040106,024945,28007,32.916833,-117.397167,14.589,33.213,NaN,NaN
20040106,025015,28037,32.916833,-117.397167,14.590,33.213,NaN,NaN
20040106,025045,28067,32.916833,-117.397167,14.591,33.213,NaN,NaN
20040106,025115,28097,32.916833,-117.397167,14.594,33.213,NaN,NaN
20040106,025145,28127,32.916667,-117.397000,14.597,33.213,NaN,NaN
20040106,025215,28157,32.916500,-117.397000,14.597,33.213,NaN,NaN
20040106,025245,28187,32.916500,-117.397000,14.596,33.213,NaN,NaN
20040106,025315,28217,32.916500,-117.397000,14.598,33.212,NaN,NaN
20040106,025345,28247,32.916333,-117.397000,14.601,33.212,NaN,NaN
20040106,025415,28277,32.916333,-117.397000,14.600,33.213,NaN,NaN
20040106,025445,28307,32.916333,-117.397000,14.603,33.213,NaN,NaN
20040106,025515,28337,32.916167,-117.397000,14.603,33.213,NaN,NaN
20040106,025545,28367,32.916167,-117.397000,14.603,33.213,NaN,NaN
20040106,025615,28397,32.916000,-117.397000,14.603,33.212,NaN,NaN
20040106,025645,28427,32.916000,-117.397167,14.598,33.214,NaN,NaN
20040106,025715,28457,32.915833,-117.397167,14.599,33.213,NaN,NaN
20040106,025745,28487,32.915833,-117.397167,14.601,33.212,NaN,NaN
20040106,025815,28517,32.915833,-117.397167,14.597,33.213,NaN,NaN
20040106,025845,28547,32.915667,-117.397333,14.596,33.213,NaN,NaN